Regional Weather Roundup
Issued by NWS Sterling, VA

Home | Current Version | Previous Version | Graphics & Text | Print | Product List | Glossary On
Versions: 1 2 3 4 5 6 7 8 9 10 11 12 13 14 15 16 17 18 19 20 21 22 23 24 25 26 27 28 29 30 31 32 33 34 35 36 37 38 39 40 41 42 43 44 45 46 47 48 49 50
000
ASUS41 KLWX 251611
RWRLWX

REGIONAL WEATHER ROUNDUP
NATIONAL WEATHER SERVICE BALTIMORE MD/WASHINGTON DC
1200 PM EDT SAT MAR 25 2017

Note: "FAIR" indicates few or no clouds below 12,000 feet
with no significant weather and/or obstructions to visibility.
 TC=TEMPERATURE CELSIUS

 * =Non NWS site. Station does not report precipitation (e.g. rain,
    snow, etc.), thunder, or fog.

DCZ001-MDZ009-015-VAZ040>042-051-053>054-251700-
WASHINGTON METRO

CITY           SKY/WX    TMP DP  RH WIND       PRES   REMARKS
WASHINGTON NAT CLOUDY    67  51  56 S13       30.18F
DULLES         CLOUDY    71  50  47 S5        30.18F
ANDREWS AFB    MOSUNNY   74  50  42 W8        30.17F
FT BELVOIR     MOSUNNY   73  49  43 S6        30.18F
QUANTICO       MOSUNNY   61  51  70 S14       30.19F
COLLEGE PARK*  CLOUDY    70  50  49 SW5       30.18S
LEESBURG*      CLOUDY    73  55  53 CALM      30.19F
MANASSAS*      CLOUDY    73  52  47 SW6       30.18F

$$

MDZ006>007-011-014-251700-
BALTIMORE METRO

CITY           SKY/WX    TMP DP  RH WIND       PRES   REMARKS
BWI AIRPORT    CLOUDY    73  51  46 VRB5      30.17S
MD SCIENCE CTR   N/A     74  49  41 MISG      30.20F
MARTIN STATE   CLOUDY    64  54  68 SE5       30.19S
ANNAPOLIS      PTSUNNY   56  48  74 SE10      30.17F
FORT MEADE*    CLOUDY    72  48  43 W6        30.20S

$$

MDZ012-015-019>023-251700-
MARYLAND EASTERN SHORE

CITY           SKY/WX    TMP DP  RH WIND       PRES   REMARKS
OCEAN CITY     MOSUNNY   68  50  52 W12G20    30.19F
SALISBURY      PTSUNNY   66  51  58 W13       30.19F
BAY BRIDGE AP* MOSUNNY   72  52  49 S5        30.17F
CAMBRIDGE*     SUNNY     68  52  56 SW7       30.19S
EASTON*        MOSUNNY   70  48  46 SW12      30.22F

$$

MDZ017>025-251700-
SOUTHERN MARYLAND

CITY           SKY/WX    TMP DP  RH WIND       PRES   REMARKS
PATUXENT RIVER PTSUNNY   70  54  56 W18       30.19F
ST INIGOES     MOSUNNY   69  51  52 SW9       30.19F
LEONARDTOWN*   MOSUNNY   68  48  49 SW15      30.21S

$$

MDZ003>005-251700-
NORTH CENTRAL MARYLAND

CITY           SKY/WX    TMP DP  RH WIND       PRES   REMARKS
FREDERICK*     SUNNY     70  55  60 SW7       30.20F
HAGERSTOWN APT CLOUDY    72  51  47 SW9       30.16F
WESTMINSTER*   PTSUNNY   70  52  52 SW10      30.17F

$$

MDZ501>502-251700-
WESTERN MARYLAND

CITY           SKY/WX    TMP DP  RH WIND       PRES   REMARKS
OAKLAND*       PTSUNNY   61  46  59 W9        30.24F
CUMBERLAND*    CLOUDY    73  48  40 W8        30.21F

$$

VAZ025>031-251700-
SHENANDOAH VALLEY

CITY           SKY/WX    TMP DP  RH WIND       PRES   REMARKS
WINCHESTER*    MOSUNNY   70  50  49 SW5       30.18F
FRONT ROYAL*   MOSUNNY   73  50  43 SW6       30.17F
LURAY*         MOSUNNY   72  54  53 SW8       30.20F
NEW MARKET*    MOSUNNY   71  50  46 SW8       30.19F
STAUNTON*      SUNNY     70  50  49 SW3       30.23F
WAYNESBORO*    SUNNY     69  51  52 W6        30.23F

$$

WVZ021-048>050-054>055-251700-
EASTERN WEST VIRGINIA PANHANDLE

CITY           SKY/WX    TMP DP  RH WIND       PRES   REMARKS
MARTINSBURG    CLOUDY    72  50  45 SW6       30.17S
PETERSBURG*    PTSUNNY   73  52  48 W7        30.19F

$$

VAZ036>039-050-251700-
CENTRAL FOOTHILLS

CITY           SKY/WX    TMP DP  RH WIND       PRES   REMARKS
CHARLOTTESVILL SUNNY     75  50  41 S9        30.20F
CULPEPER*      MOSUNNY   73  52  47 SW6       30.19F
ORANGE*        SUNNY     73  50  43 SW12      30.21F
GORDONSVILLE*  SUNNY     73  51  47 SW9       30.20F
WARRENTON*     MOSUNNY   75  47  37 S8        30.18F

$$

VAZ055>057-251700-
NORTH AND CENTRAL PIEDMONT

CITY           SKY/WX    TMP DP  RH WIND       PRES   REMARKS
FREDERICKSBRG* SUNNY     73  52  48 SW6       30.19F
STAFFORD*      SUNNY     72  50  45 SW9       30.23F

$$

NCZ024-NYZ072-PAZ021-071-VAZ022-071-251700-
OTHER REGIONAL OBSERVATIONS

CITY           SKY/WX    TMP DP  RH WIND       PRES   REMARKS
NEW YORK CITY  CLOUDY    58  38  47 CALM      30.19R
PHILADELPHIA   CLOUDY    67  48  50 W10       30.16F
PITTSBURGH     CLOUDY    69  50  50 SW10      30.16S
ROANOKE        CLOUDY    69  47  45 S7        30.26F
RICHMOND       PTSUNNY   73  51  46 SW15      30.23F
RALEIGH        PTSUNNY   69  51  52 W14G22    30.32F

$$

ANZ530>537-251700-
MARINE OBSERVATIONS

STATION/POSITION TIME  TEMP    WIND        PRES
                       AIR SEA DIR/SP/G
                 (UTC) (F)     (DEG/KT/KT) (MB)
THOMAS PT LIGHT  1600   61 45  160/ 12/ 13   N/A
BALT KEY BRIDGE  1542   64      20/  2/  3 1021.7F
COVE POINT       1542   67     280/ 13/ 19 1022.7R
LEWISETTA        1542   65 48  270/ 16/ 19 1022.5F
SOLOMONS ISLAND  1542   64 46  250/ 10/ 14   N/A
PINEY POINT      1536          280/ 10/ 11   N/A

$$




USA.gov is the U.S. government's official web portal to all federal, state and local government web resources and services.